| time (UTC) | temp F | wind direction | speed MPH | gust MPH | rain 1hr in | rain 24hr in | rain mn in | humidity % | barometer mb |
| 20260505102100 | 79 | 229 | 5.0 | 11.0 | 0.00 | 0.00 | 0.00 | 28 | 1009.9 |
| 20260505102024 | 79 | 229 | 5.0 | 11.0 | 0.00 | 0.00 | 0.00 | 28 | 1009.9 |
| 20260505101522 | 79 | 240 | 4.0 | 9.0 | 0.00 | 0.00 | 0.00 | 28 | 1010.1 |
| 20260505101021 | 79 | 205 | 6.0 | 13.0 | 0.00 | 0.00 | 0.00 | 27 | 1010.1 |
| 20260505100518 | 80 | 220 | 6.0 | 14.0 | 0.00 | 0.00 | 0.00 | 27 | 1010.0 |
| 20260505100148 | 80 | 188 | 6.0 | 15.0 | 0.00 | 0.00 | 0.00 | 28 | 1010.2 |
| 20260505100017 | 80 | 188 | 6.0 | 15.0 | 0.00 | 0.00 | 0.00 | 28 | 1010.2 |
| 20260505095535 | 79 | 185 | 5.0 | 13.0 | 0.00 | 0.00 | 0.00 | 28 | 1010.3 |
| 20260505095033 | 79 | 193 | 8.0 | 17.0 | 0.00 | 0.00 | 0.00 | 27 | 1010.3 |
| 20260505094531 | 79 | 200 | 6.0 | 14.0 | 0.00 | 0.00 | 0.00 | 28 | 1010.4 |
| 20260505094029 | 79 | 180 | 7.0 | 15.0 | 0.00 | 0.00 | 0.00 | 29 | 1010.3 |
| 20260505093528 | 79 | 177 | 8.0 | 17.0 | 0.00 | 0.00 | 0.00 | 28 | 1010.4 |
| 20260505093026 | 79 | 183 | 7.0 | 15.0 | 0.00 | 0.00 | 0.00 | 29 | 1010.4 |
| 20260505092524 | 79 | 227 | 6.0 | 13.0 | 0.00 | 0.00 | 0.00 | 30 | 1010.4 |
| 20260505092022 | 78 | 244 | 5.0 | 14.0 | 0.00 | 0.00 | 0.00 | 32 | 1010.4 |
| 20260505091520 | 78 | 186 | 6.0 | 15.0 | 0.00 | 0.00 | 0.00 | 32 | 1010.5 |
| 20260505091019 | 78 | 204 | 5.0 | 14.0 | 0.00 | 0.00 | 0.00 | 31 | 1010.5 |
| 20260505090517 | 78 | 191 | 5.0 | 9.0 | 0.00 | 0.00 | 0.00 | 32 | 1010.6 |
| 20260505090035 | 78 | 212 | 6.0 | 15.0 | 0.00 | 0.00 | 0.00 | 32 | 1010.5 |
| 20260505085533 | 77 | 228 | 5.0 | 14.0 | 0.00 | 0.00 | 0.00 | 33 | 1010.6 |
| 20260505085031 | 77 | 221 | 4.0 | 10.0 | 0.00 | 0.00 | 0.00 | 33 | 1010.7 |
| 20260505084530 | 76 | 251 | 5.0 | 9.0 | 0.00 | 0.00 | 0.00 | 32 | 1010.7 |
| 20260505084027 | 76 | 260 | 4.0 | 9.0 | 0.00 | 0.00 | 0.00 | 32 | 1010.8 |
| 20260505083526 | 76 | 234 | 5.0 | 10.0 | 0.00 | 0.00 | 0.00 | 32 | 1010.9 |
| 20260505083024 | 75 | 185 | 3.0 | 8.0 | 0.00 | 0.00 | 0.00 | 33 | 1010.9 |
| 20260505082522 | 75 | 228 | 5.0 | 11.0 | 0.00 | 0.00 | 0.00 | 32 | 1011.0 |
| 20260505082020 | 75 | 198 | 5.0 | 11.0 | 0.00 | 0.00 | 0.00 | 32 | 1010.9 |
| 20260505081519 | 75 | 222 | 5.0 | 11.0 | 0.00 | 0.00 | 0.00 | 33 | 1010.9 |
| 20260505081016 | 74 | 237 | 5.0 | 15.0 | 0.00 | 0.00 | 0.00 | 33 | 1011.0 |
| 20260505080535 | 74 | 269 | 3.0 | 10.0 | 0.00 | 0.00 | 0.00 | 33 | 1011.0 |
| 20260505080034 | 73 | 278 | 4.0 | 13.0 | 0.00 | 0.00 | 0.00 | 34 | 1011.0 |
| 20260505075531 | 73 | 251 | 5.0 | 9.0 | 0.00 | 0.00 | 0.00 | 34 | 1011.0 |
| 20260505075030 | 73 | 232 | 5.0 | 11.0 | 0.00 | 0.00 | 0.00 | 35 | 1011.1 |
| 20260505074528 | 72 | 256 | 3.0 | 10.0 | 0.00 | 0.00 | 0.00 | 34 | 1011.1 |
| 20260505074026 | 72 | 249 | 6.0 | 13.0 | 0.00 | 0.00 | 0.00 | 34 | 1011.1 |
| 20260505073524 | 71 | 249 | 5.0 | 10.0 | 0.00 | 0.00 | 0.00 | 35 | 1011.2 |
| 20260505073022 | 71 | 265 | 6.0 | 16.0 | 0.00 | 0.00 | 0.00 | 35 | 1011.2 |
| 20260505072520 | 70 | 243 | 5.0 | 9.0 | 0.00 | 0.00 | 0.00 | 38 | 1011.2 |
| 20260505072018 | 70 | 239 | 2.0 | 8.0 | 0.00 | 0.00 | 0.00 | 39 | 1011.2 |
| 20260505071517 | 69 | 243 | 4.0 | 9.0 | 0.00 | 0.00 | 0.00 | 40 | 1011.2 |
| 20260505071035 | 69 | 203 | 4.0 | 9.0 | 0.00 | 0.00 | 0.00 | 42 | 1011.4 |
| 20260505070533 | 68 | 206 | 3.0 | 9.0 | 0.00 | 0.00 | 0.00 | 42 | 1011.3 |
| 20260505070031 | 68 | 250 | 2.0 | 9.0 | 0.00 | 0.00 | 0.00 | 43 | 1011.4 |
| 20260505065530 | 67 | 227 | 4.0 | 10.0 | 0.00 | 0.00 | 0.00 | 43 | 1011.3 |
| 20260505065028 | 67 | 214 | 3.0 | 9.0 | 0.00 | 0.00 | 0.00 | 44 | 1011.4 |
| 20260505064526 | 66 | 216 | 2.0 | 6.0 | 0.00 | 0.00 | 0.00 | 46 | 1011.4 |
| 20260505064024 | 65 | 228 | 2.0 | 6.0 | 0.00 | 0.00 | 0.00 | 46 | 1011.5 |
| 20260505063522 | 65 | 226 | 2.0 | 6.0 | 0.00 | 0.00 | 0.00 | 46 | 1011.5 |
| 20260505063021 | 65 | 240 | 3.0 | 7.0 | 0.00 | 0.00 | 0.00 | 46 | 1011.5 |
| 20260505062519 | 64 | 226 | 4.0 | 10.0 | 0.00 | 0.00 | 0.00 | 46 | 1011.5 |
| 20260505062049 | 64 | 264 | 3.0 | 8.0 | 0.00 | 0.00 | 0.00 | 47 | 1011.6 |
| 20260505062016 | 64 | 264 | 3.0 | 8.0 | 0.00 | 0.00 | 0.00 | 47 | 1011.6 |
| 20260505061535 | 63 | 235 | 3.0 | 6.0 | 0.00 | 0.00 | 0.00 | 48 | 1011.6 |
| 20260505061034 | 63 | 246 | 4.0 | 10.0 | 0.00 | 0.00 | 0.00 | 48 | 1011.6 |
| 20260505060532 | 62 | 220 | 3.0 | 8.0 | 0.00 | 0.00 | 0.00 | 50 | 1011.5 |
| 20260505060030 | 61 | 192 | 2.0 | 4.0 | 0.00 | 0.00 | 0.00 | 52 | 1011.5 |
| 20260505055528 | 61 | 188 | 1.0 | 4.0 | 0.00 | 0.00 | 0.00 | 52 | 1011.6 |
| 20260505055026 | 60 | 184 | 2.0 | 4.0 | 0.00 | 0.00 | 0.00 | 53 | 1011.5 |
| 20260505054524 | 60 | 213 | 1.0 | 3.0 | 0.00 | 0.00 | 0.00 | 54 | 1011.5 |
| 20260505054023 | 59 | 210 | 1.0 | 3.0 | 0.00 | 0.00 | 0.00 | 54 | 1011.6 |
| 20260505053522 | 59 | 218 | 2.0 | 6.0 | 0.00 | 0.00 | 0.00 | 55 | 1011.6 |
| 20260505053019 | 58 | 203 | 1.0 | 4.0 | 0.00 | 0.00 | 0.00 | 56 | 1011.6 |
| 20260505052518 | 58 | 203 | 1.0 | 6.0 | 0.00 | 0.00 | 0.00 | 57 | 1011.7 |
| 20260505052035 | 57 | 211 | 1.0 | 3.0 | 0.00 | 0.00 | 0.00 | 59 | 1011.7 |
| 20260505051533 | 57 | 193 | 2.0 | 6.0 | 0.00 | 0.00 | 0.00 | 60 | 1011.7 |
| 20260505051032 | 56 | 184 | 1.0 | 3.0 | 0.00 | 0.00 | 0.00 | 61 | 1011.7 |
| 20260505050530 | 55 | 189 | 0.0 | 2.0 | 0.00 | 0.00 | 0.00 | 62 | 1011.6 |
| 20260505041531 | 53 | 0.0 | 0.0 | 0.00 | 0.00 | 0.00 | 64 | 1011.6 | |
| 20260505041031 | 53 | 0.0 | 0.0 | 0.00 | 0.00 | 0.00 | 64 | 1011.6 | |
| 20260505040528 | 53 | 0.0 | 0.0 | 0.00 | 0.00 | 0.00 | 64 | 1011.7 | |
| 20260505040026 | 53 | 0.0 | 0.0 | 0.00 | 0.00 | 0.00 | 64 | 1011.6 | |
| 20260505035524 | 52 | 0.0 | 0.0 | 0.00 | 0.00 | 0.00 | 64 | 1011.6 | |
| 20260505035022 | 52 | 0.0 | 0.0 | 0.00 | 0.00 | 0.00 | 64 | 1011.6 | |
| 20260505034520 | 52 | 0.0 | 0.0 | 0.00 | 0.00 | 0.00 | 64 | 1011.7 | |
| 20260505034018 | 53 | 0.0 | 0.0 | 0.00 | 0.00 | 0.00 | 64 | 1011.6 | |
| 20260505033517 | 53 | 0.0 | 0.0 | 0.00 | 0.00 | 0.00 | 64 | 1011.6 | |
| 20260505033035 | 53 | 0.0 | 0.0 | 0.00 | 0.00 | 0.00 | 63 | 1011.7 | |
| 20260505032533 | 53 | 0.0 | 0.0 | 0.00 | 0.00 | 0.00 | 63 | 1011.6 | |
| 20260505032049 | 53 | 0.0 | 0.0 | 0.00 | 0.00 | 0.00 | 63 | 1011.6 | |
| 20260505032031 | 53 | 0.0 | 0.0 | 0.00 | 0.00 | 0.00 | 63 | 1011.6 | |
| 20260505031529 | 53 | 0.0 | 0.0 | 0.00 | 0.00 | 0.00 | 63 | 1011.7 | |
| 20260505031028 | 53 | 0.0 | 0.0 | 0.00 | 0.00 | 0.00 | 63 | 1011.7 | |
| 20260505030526 | 53 | 0.0 | 0.0 | 0.00 | 0.00 | 0.00 | 63 | 1011.7 | |
| 20260505030024 | 53 | 0.0 | 0.0 | 0.00 | 0.00 | 0.00 | 62 | 1011.7 | |
| 20260505025522 | 53 | 0.0 | 0.0 | 0.00 | 0.00 | 0.00 | 62 | 1011.7 | |
| 20260505025020 | 54 | 0.0 | 0.0 | 0.00 | 0.00 | 0.00 | 61 | 1011.8 | |
| 20260505024518 | 54 | 0.0 | 0.0 | 0.00 | 0.00 | 0.00 | 61 | 1011.9 | |
| 20260505024016 | 54 | 0.0 | 0.0 | 0.00 | 0.00 | 0.00 | 61 | 1011.9 | |
| 20260505023535 | 54 | 0.0 | 0.0 | 0.00 | 0.00 | 0.00 | 61 | 1011.9 | |
| 20260505023033 | 54 | 0.0 | 0.0 | 0.00 | 0.00 | 0.00 | 61 | 1011.9 | |
| 20260505022531 | 54 | 0.0 | 0.0 | 0.00 | 0.00 | 0.00 | 61 | 1012.0 | |
| 20260505022029 | 54 | 0.0 | 0.0 | 0.00 | 0.00 | 0.00 | 61 | 1012.0 | |
| 20260505021528 | 55 | 0.0 | 0.0 | 0.00 | 0.00 | 0.00 | 60 | 1012.0 | |
| 20260505021026 | 55 | 0.0 | 0.0 | 0.00 | 0.00 | 0.00 | 60 | 1011.9 | |
| 20260505020525 | 55 | 0.0 | 0.0 | 0.00 | 0.00 | 0.00 | 60 | 1012.0 | |
| 20260505020022 | 55 | 0.0 | 0.0 | 0.00 | 0.00 | 0.00 | 60 | 1012.0 | |
| 20260505015520 | 55 | 0.0 | 0.0 | 0.00 | 0.00 | 0.00 | 60 | 1011.9 | |
| 20260505015019 | 55 | 0.0 | 0.0 | 0.00 | 0.00 | 0.00 | 60 | 1012.1 | |
| 20260505014517 | 55 | 0.0 | 0.0 | 0.00 | 0.00 | 0.00 | 59 | 1012.0 | |
| 20260505014035 | 55 | 0.0 | 0.0 | 0.00 | 0.00 | 0.00 | 59 | 1012.1 | |
| 20260505013534 | 56 | 0.0 | 0.0 | 0.00 | 0.00 | 0.00 | 59 | 1012.1 | |
| 20260505013032 | 56 | 0.0 | 0.0 | 0.00 | 0.00 | 0.00 | 58 | 1012.1 | |
| 20260505012530 | 56 | 0.0 | 0.0 | 0.00 | 0.00 | 0.00 | 58 | 1012.1 | |
| 20260505012028 | 56 | 0.0 | 0.0 | 0.00 | 0.00 | 0.00 | 58 | 1012.2 | |
| 20260505011526 | 56 | 0.0 | 0.0 | 0.00 | 0.00 | 0.00 | 58 | 1012.2 | |
| 20260505011025 | 56 | 0.0 | 0.0 | 0.00 | 0.00 | 0.00 | 57 | 1012.2 | |
| 20260505010523 | 57 | 0.0 | 0.0 | 0.00 | 0.00 | 0.00 | 57 | 1012.3 | |
| 20260505010021 | 57 | 0.0 | 0.0 | 0.00 | 0.00 | 0.00 | 57 | 1012.3 | |
| 20260505005520 | 57 | 0.0 | 0.0 | 0.00 | 0.00 | 0.00 | 57 | 1012.3 | |
| 20260505005018 | 57 | 0.0 | 0.0 | 0.00 | 0.00 | 0.00 | 57 | 1012.3 | |
| 20260505004516 | 57 | 0.0 | 0.0 | 0.00 | 0.00 | 0.00 | 57 | 1012.2 | |
| 20260505004034 | 57 | 0.0 | 0.0 | 0.00 | 0.00 | 0.00 | 57 | 1012.3 | |
| 20260505003533 | 57 | 0.0 | 0.0 | 0.00 | 0.00 | 0.00 | 58 | 1012.4 | |
| 20260505003031 | 57 | 0.0 | 0.0 | 0.00 | 0.00 | 0.00 | 57 | 1012.2 | |
| 20260505002529 | 57 | 0.0 | 0.0 | 0.00 | 0.00 | 0.00 | 57 | 1012.1 | |
| 20260505002027 | 57 | 0.0 | 0.0 | 0.00 | 0.00 | 0.00 | 56 | 1012.1 | |
| 20260505001525 | 57 | 0.0 | 0.0 | 0.00 | 0.00 | 0.00 | 56 | 1012.1 | |
| 20260505001023 | 58 | 0.0 | 0.0 | 0.00 | 0.00 | 0.00 | 56 | 1012.2 | |
| 20260505000522 | 58 | 0.0 | 0.0 | 0.00 | 0.00 | 0.00 | 56 | 1012.2 | |
| 20260505000020 | 58 | 0.0 | 0.0 | 0.00 | 0.00 | 0.00 | 56 | 1012.2 | |
| 20260504235518 | 58 | 0.0 | 0.0 | 0.00 | 0.00 | 0.00 | 56 | 1012.2 | |
| 20260504235048 | 58 | 0.0 | 0.0 | 0.00 | 0.00 | 0.00 | 56 | 1012.3 | |
| 20260504235017 | 58 | 0.0 | 0.0 | 0.00 | 0.00 | 0.00 | 56 | 1012.3 | |
| 20260504234534 | 58 | 0.0 | 0.0 | 0.00 | 0.00 | 0.00 | 56 | 1012.3 | |
| 20260504234032 | 58 | 0.0 | 0.0 | 0.00 | 0.00 | 0.00 | 55 | 1012.4 | |
| 20260504233531 | 58 | 0.0 | 0.0 | 0.00 | 0.00 | 0.00 | 55 | 1012.3 | |
| 20260504233029 | 58 | 0.0 | 0.0 | 0.00 | 0.00 | 0.00 | 55 | 1012.4 | |
| 20260504232528 | 58 | 0.0 | 0.0 | 0.00 | 0.00 | 0.00 | 55 | 1012.4 | |
| 20260504232025 | 58 | 0.0 | 0.0 | 0.00 | 0.00 | 0.00 | 55 | 1012.4 | |
| 20260504231524 | 58 | 0.0 | 0.0 | 0.00 | 0.00 | 0.00 | 55 | 1012.5 | |
| 20260504231022 | 59 | 0.0 | 0.0 | 0.00 | 0.00 | 0.00 | 55 | 1012.4 | |
| 20260504230520 | 59 | 0.0 | 0.0 | 0.00 | 0.00 | 0.00 | 54 | 1012.5 | |
| 20260504230018 | 59 | 0.0 | 0.0 | 0.00 | 0.00 | 0.00 | 53 | 1012.6 | |
| 20260504225516 | 59 | 0.0 | 0.0 | 0.00 | 0.00 | 0.00 | 53 | 1012.6 | |
| 20260504225035 | 59 | 0.0 | 0.0 | 0.00 | 0.00 | 0.00 | 54 | 1012.6 | |
| 20260504224533 | 59 | 0.0 | 0.0 | 0.00 | 0.00 | 0.00 | 55 | 1012.6 | |
| 20260504224031 | 59 | 0.0 | 0.0 | 0.00 | 0.00 | 0.00 | 53 | 1012.7 | |
| 20260504223529 | 60 | 0.0 | 0.0 | 0.00 | 0.00 | 0.00 | 52 | 1012.7 | |
| 20260504223027 | 60 | 0.0 | 0.0 | 0.00 | 0.00 | 0.00 | 52 | 1012.8 | |
| 20260504222525 | 60 | 0.0 | 0.0 | 0.00 | 0.00 | 0.00 | 52 | 1012.8 | |
| 20260504222024 | 60 | 0.0 | 0.0 | 0.00 | 0.00 | 0.00 | 52 | 1012.7 | |
| 20260504221522 | 60 | 0.0 | 0.0 | 0.00 | 0.00 | 0.00 | 52 | 1012.7 | |
| 20260504221021 | 60 | 257 | 0.0 | 1.0 | 0.00 | 0.00 | 0.00 | 52 | 1012.6 |
| 20260504220518 | 60 | 0.0 | 0.0 | 0.00 | 0.00 | 0.00 | 52 | 1012.7 | |
| 20260504220017 | 60 | 0.0 | 0.0 | 0.00 | 0.00 | 0.00 | 52 | 1012.7 | |
| 20260504215535 | 60 | 0.0 | 0.0 | 0.00 | 0.00 | 0.00 | 52 | 1012.7 | |
| 20260504215033 | 61 | 0.0 | 0.0 | 0.00 | 0.00 | 0.00 | 52 | 1012.7 | |
| 20260504214531 | 61 | 244 | 0.0 | 1.0 | 0.00 | 0.00 | 0.00 | 51 | 1012.6 |
| 20260504214030 | 61 | 244 | 0.0 | 1.0 | 0.00 | 0.00 | 0.00 | 51 | 1012.6 |
| 20260504213527 | 61 | 0.0 | 0.0 | 0.00 | 0.00 | 0.00 | 51 | 1012.6 | |
| 20260504213026 | 61 | 0.0 | 0.0 | 0.00 | 0.00 | 0.00 | 50 | 1012.7 | |
| 20260504212524 | 61 | 0.0 | 0.0 | 0.00 | 0.00 | 0.00 | 50 | 1012.7 | |
| 20260504212022 | 62 | 0.0 | 0.0 | 0.00 | 0.00 | 0.00 | 50 | 1012.6 | |
| 20260504211520 | 62 | 0.0 | 0.0 | 0.00 | 0.00 | 0.00 | 49 | 1012.7 | |
| 20260504211052 | 62 | 0.0 | 0.0 | 0.00 | 0.00 | 0.00 | 49 | 1012.7 | |
| 20260504211019 | 62 | 0.0 | 0.0 | 0.00 | 0.00 | 0.00 | 49 | 1012.7 | |
| 20260504210517 | 62 | 0.0 | 0.0 | 0.00 | 0.00 | 0.00 | 48 | 1012.6 | |
| 20260504210035 | 62 | 0.0 | 0.0 | 0.00 | 0.00 | 0.00 | 48 | 1012.6 | |
| 20260504205532 | 62 | 0.0 | 0.0 | 0.00 | 0.00 | 0.00 | 47 | 1012.6 | |
| 20260504205030 | 63 | 0.0 | 0.0 | 0.00 | 0.00 | 0.00 | 48 | 1012.7 | |
| 20260504204528 | 63 | 0.0 | 0.0 | 0.00 | 0.00 | 0.00 | 48 | 1012.7 | |
| 20260504204026 | 63 | 0.0 | 0.0 | 0.00 | 0.00 | 0.00 | 48 | 1012.7 | |
| 20260504203523 | 63 | 0.0 | 0.0 | 0.00 | 0.00 | 0.00 | 47 | 1012.7 | |
| 20260504203022 | 63 | 0.0 | 0.0 | 0.00 | 0.00 | 0.00 | 47 | 1012.7 | |
| 20260504202520 | 64 | 0.0 | 0.0 | 0.00 | 0.00 | 0.00 | 46 | 1012.7 | |
| 20260504202018 | 64 | 0.0 | 0.0 | 0.00 | 0.00 | 0.00 | 46 | 1012.6 | |
| 20260504201516 | 64 | 0.0 | 0.0 | 0.00 | 0.00 | 0.00 | 46 | 1012.5 | |
| 20260504201034 | 65 | 0.0 | 0.0 | 0.00 | 0.00 | 0.00 | 45 | 1012.6 | |
| 20260504200532 | 65 | 0.0 | 0.0 | 0.00 | 0.00 | 0.00 | 45 | 1012.6 | |
| 20260504200032 | 65 | 0.0 | 0.0 | 0.00 | 0.00 | 0.00 | 45 | 1012.5 | |
| 20260504195529 | 65 | 0.0 | 0.0 | 0.00 | 0.00 | 0.00 | 45 | 1012.5 | |
| 20260504195027 | 66 | 0.0 | 0.0 | 0.00 | 0.00 | 0.00 | 44 | 1012.6 | |
| 20260504194525 | 66 | 181 | 0.0 | 1.0 | 0.00 | 0.00 | 0.00 | 44 | 1012.6 |
| 20260504194023 | 66 | 0.0 | 0.0 | 0.00 | 0.00 | 0.00 | 44 | 1012.7 | |
| 20260504193520 | 67 | 233 | 0.0 | 3.0 | 0.00 | 0.00 | 0.00 | 44 | 1012.5 |
| 20260504193049 | 67 | 0.0 | 0.0 | 0.00 | 0.00 | 0.00 | 43 | 1012.6 | |
| 20260504193018 | 67 | 0.0 | 0.0 | 0.00 | 0.00 | 0.00 | 43 | 1012.6 | |
| 20260504192536 | 67 | 0.0 | 0.0 | 0.00 | 0.00 | 0.00 | 42 | 1012.6 | |
| 20260504192034 | 68 | 0.0 | 0.0 | 0.00 | 0.00 | 0.00 | 42 | 1012.7 | |
| 20260504191531 | 68 | 0.0 | 0.0 | 0.00 | 0.00 | 0.00 | 41 | 1012.6 | |
| 20260504191030 | 68 | 0.0 | 0.0 | 0.00 | 0.00 | 0.00 | 41 | 1012.5 | |
| 20260504190528 | 69 | 0.0 | 0.0 | 0.00 | 0.00 | 0.00 | 41 | 1012.5 | |
| 20260504190026 | 69 | 0.0 | 0.0 | 0.00 | 0.00 | 0.00 | 40 | 1012.5 | |
| 20260504185524 | 70 | 0.0 | 0.0 | 0.00 | 0.00 | 0.00 | 39 | 1012.5 | |
| 20260504185048 | 70 | 0.0 | 0.0 | 0.00 | 0.00 | 0.00 | 39 | 1012.3 | |
| 20260504185022 | 70 | 0.0 | 0.0 | 0.00 | 0.00 | 0.00 | 39 | 1012.3 | |
| 20260504184520 | 70 | 0.0 | 0.0 | 0.00 | 0.00 | 0.00 | 39 | 1012.4 | |
| 20260504184051 | 71 | 0.0 | 0.0 | 0.00 | 0.00 | 0.00 | 39 | 1012.4 | |
| 20260504184019 | 71 | 0.0 | 0.0 | 0.00 | 0.00 | 0.00 | 39 | 1012.4 | |
| 20260504183517 | 71 | 0.0 | 0.0 | 0.00 | 0.00 | 0.00 | 38 | 1012.4 | |
| 20260504183034 | 71 | 0.0 | 0.0 | 0.00 | 0.00 | 0.00 | 38 | 1012.4 | |
| 20260504182533 | 72 | 0.0 | 0.0 | 0.00 | 0.00 | 0.00 | 37 | 1012.2 | |
| 20260504182031 | 72 | 0.0 | 0.0 | 0.00 | 0.00 | 0.00 | 37 | 1012.1 | |
| 20260504181528 | 73 | 0.0 | 0.0 | 0.00 | 0.00 | 0.00 | 36 | 1012.1 | |
| 20260504181027 | 73 | 0.0 | 0.0 | 0.00 | 0.00 | 0.00 | 36 | 1012.1 | |
| 20260504180523 | 74 | 0.0 | 0.0 | 0.00 | 0.00 | 0.00 | 35 | 1012.1 | |
| 20260504180021 | 74 | 193 | 0.0 | 1.0 | 0.00 | 0.00 | 0.00 | 35 | 1012.1 |
| 20260504175519 | 74 | 0.0 | 0.0 | 0.00 | 0.00 | 0.00 | 34 | 1012.1 | |
| 20260504175049 | 75 | 0.0 | 0.0 | 0.00 | 0.00 | 0.00 | 34 | 1012.1 | |
| 20260504175017 | 75 | 0.0 | 0.0 | 0.00 | 0.00 | 0.00 | 34 | 1012.1 | |
| 20260504174535 | 75 | 0.0 | 0.0 | 0.00 | 0.00 | 0.00 | 33 | 1012.1 | |
| 20260504174033 | 76 | 0.0 | 0.0 | 0.00 | 0.00 | 0.00 | 33 | 1012.0 | |
| 20260504173530 | 76 | 202 | 0.0 | 2.0 | 0.00 | 0.00 | 0.00 | 32 | 1011.9 |
| 20260504173028 | 77 | 190 | 0.0 | 1.0 | 0.00 | 0.00 | 0.00 | 31 | 1012.0 |
| 20260504172525 | 77 | 222 | 0.0 | 2.0 | 0.00 | 0.00 | 0.00 | 31 | 1012.0 |
| 20260504172023 | 77 | 242 | 0.0 | 2.0 | 0.00 | 0.00 | 0.00 | 30 | 1012.0 |
| 20260504171521 | 77 | 242 | 1.0 | 2.0 | 0.00 | 0.00 | 0.00 | 29 | 1011.9 |
| 20260504171020 | 78 | 221 | 2.0 | 7.0 | 0.00 | 0.00 | 0.00 | 29 | 1011.9 |
| 20260504170518 | 78 | 245 | 2.0 | 4.0 | 0.00 | 0.00 | 0.00 | 29 | 1011.9 |